Weather History for KHQZ - January, 2013

Change the Weather History Date:

Monday, January 14, 2013

  Actual Average (KDFW) Record (KDFW)
Temperature  
Mean Temperature 35 °F 46 °F  
Max Temperature 42 °F 56 °F 79 °F (1928)
Min Temperature 28 °F 35 °F 4 °F (1964)
Degree Days  
Heating Degree Days 30 19  
Month to date heating degree days 277  
Since 1 July heating degree days 1189  
Cooling Degree Days 0 0  
Month to date cooling degree days 0  
Year to date cooling degree days 0  
Moisture  
Dew Point 24 °F    
Average Humidity 65    
Maximum Humidity 80    
Minimum Humidity 52    
Precipitation  
Precipitation 0.00 in 0.06 in 0.78 in (1917)
Month to date precipitation 0.87  
Year to date precipitation 0.87  
Snow  
Snow 0.00 in 0.00 in 7.80 in (1917)
Month to date snowfall 0.1  
Since 1 July snowfall 0.4  
Snow Depth -    
Sea Level Pressure  
Sea Level Pressure 30.28 in    
Wind  
Wind Speed 10 mph (NNE)    
Max Wind Speed 17 mph    
Max Gust Speed 23 mph    
Visibility 10 miles    
Events      
T = Trace of Precipitation, MM = Missing Value Source: NWS Daily Summary

Daily Weather History Graph

Daily Weather History Graph

Search for Another Location

Airport or City:

Trip Planner

Search our weather history database for the weather conditions in past years. The results will help you decide how hot, cold, wet, or windy it might be!

Date:

Astronomy

Jan. 14, 2013 Rise Set
Actual Time 7:28 AM CST 5:42 PM CST
Civil Twilight 7:01 AM CST 6:08 PM CST
Nautical Twilight 6:31 AM CST 6:39 PM CST
Astronomical Twilight 6:02 AM CST 7:08 PM CST
Moon 9:15 AM CST (1/14) 9:14 PM CST (1/14)
Length of Visible Light 11h 06m
Length of Day
10h 13m
Waxing Crescent, 11% of the Moon is Illuminated
Jan 14
Waxing Crescent
Jan 18
First Quarter
Jan 26
Full
Feb 3
Last Quarter
Feb 10
New

Hourly Weather History & Observations

Time (CST) Temp. Windchill Dew Point Humidity Pressure Visibility Wind Dir Wind Speed Gust Speed Precip Events Conditions
12:15 AM 32.0 °F 23.6 °F 21.2 °F 64% 30.29 in 10.0 mi North 10.4 mph - N/A   Clear
12:35 AM 30.2 °F 18.5 °F 21.2 °F 69% 30.28 in 10.0 mi North 17.3 mph 20.7 mph N/A   Clear
1:15 AM 30.2 °F 20.2 °F 21.2 °F 69% 30.26 in 10.0 mi North 12.7 mph 23.0 mph N/A   Clear
1:35 AM 30.2 °F 20.2 °F 21.2 °F 69% 30.25 in 10.0 mi North 12.7 mph 19.6 mph N/A   Clear
1:55 AM 30.2 °F 20.8 °F 21.2 °F 69% 30.26 in 10.0 mi NNE 11.5 mph 20.7 mph N/A   Clear
2:15 AM 30.2 °F 19.8 °F 21.2 °F 69% 30.26 in 10.0 mi North 13.8 mph 19.6 mph N/A   Clear
2:35 AM 28.4 °F 18.0 °F 21.2 °F 74% 30.26 in 10.0 mi NNE 12.7 mph 19.6 mph N/A   Clear
2:55 AM 28.4 °F 18.0 °F 21.2 °F 74% 30.28 in 10.0 mi North 12.7 mph 19.6 mph N/A   Clear
3:15 AM 28.4 °F 18.5 °F 21.2 °F 74% 30.28 in 10.0 mi North 11.5 mph 21.9 mph N/A   Clear
3:35 AM 30.2 °F 20.8 °F 21.2 °F 69% 30.29 in 10.0 mi North 11.5 mph 18.4 mph N/A   Clear
3:55 AM 30.2 °F 20.8 °F 23.0 °F 75% 30.30 in 10.0 mi North 11.5 mph - N/A   Clear
4:15 AM 30.2 °F 20.2 °F 23.0 °F 75% 30.31 in 10.0 mi North 12.7 mph - N/A   Mostly Cloudy
4:35 AM 30.2 °F 21.9 °F 21.2 °F 69% 30.30 in 10.0 mi North 9.2 mph - N/A   Overcast
5:15 AM 30.2 °F 22.6 °F 21.2 °F 69% 30.31 in 10.0 mi NNE 8.1 mph - N/A   Overcast
5:55 AM 30.2 °F 22.6 °F 21.2 °F 69% 30.33 in 10.0 mi NNE 8.1 mph - N/A   Overcast
6:15 AM 30.2 °F 20.8 °F 21.2 °F 69% 30.30 in 10.0 mi North 11.5 mph 17.3 mph N/A   Overcast
6:35 AM 30.2 °F 21.9 °F 21.2 °F 69% 30.32 in 10.0 mi North 9.2 mph - N/A   Overcast
6:55 AM 30.2 °F 23.4 °F 21.2 °F 69% 30.32 in 10.0 mi North 6.9 mph - N/A   Overcast
7:15 AM 30.2 °F 21.9 °F 23.0 °F 75% 30.34 in 10.0 mi North 9.2 mph - N/A   Overcast
7:35 AM 30.2 °F 21.3 °F 21.2 °F 69% 30.34 in 10.0 mi North 10.4 mph - N/A   Overcast
7:55 AM 30.2 °F 22.6 °F 21.2 °F 69% 30.34 in 10.0 mi North 8.1 mph 17.3 mph N/A   Overcast
8:15 AM 30.2 °F 20.8 °F 21.2 °F 69% 30.34 in 10.0 mi NNE 11.5 mph 18.4 mph N/A   Overcast
8:55 AM 32.0 °F 22.5 °F 21.2 °F 64% 30.35 in 10.0 mi North 12.7 mph 19.6 mph N/A   Overcast
9:15 AM 32.0 °F 23.6 °F 21.2 °F 64% 30.35 in 10.0 mi NNE 10.4 mph - N/A   Mostly Cloudy
9:35 AM 32.0 °F 23.0 °F 21.2 °F 64% 30.34 in 10.0 mi North 11.5 mph - N/A   Scattered Clouds
9:55 AM 32.0 °F 23.0 °F 21.2 °F 64% 30.34 in 10.0 mi NNE 11.5 mph 17.3 mph N/A   Clear
10:15 AM 32.0 °F 23.6 °F 21.2 °F 64% 30.34 in 10.0 mi North 10.4 mph 16.1 mph N/A   Clear
10:35 AM 33.8 °F 23.9 °F 19.4 °F 56% 30.34 in 10.0 mi North 15.0 mph 18.4 mph N/A   Clear
10:55 AM 33.8 °F 24.8 °F 19.4 °F 56% 30.33 in 10.0 mi North 12.7 mph 18.4 mph N/A   Clear
11:15 AM 35.6 °F 27.5 °F 21.2 °F 56% 30.32 in 10.0 mi NNE 11.5 mph 19.6 mph N/A   Clear
11:35 AM 35.6 °F 27.1 °F 21.2 °F 56% 30.31 in 10.0 mi North 12.7 mph 19.6 mph N/A   Clear
11:55 AM 35.6 °F 27.5 °F 21.2 °F 56% 30.29 in 10.0 mi NNE 11.5 mph 16.1 mph N/A   Clear
12:15 PM 37.4 °F 28.9 °F 23.0 °F 56% 30.28 in 10.0 mi North 13.8 mph 17.3 mph N/A   Clear
12:35 PM 37.4 °F 30.3 °F 23.0 °F 56% 30.27 in 10.0 mi NNE 10.4 mph - N/A   Clear
1:15 PM 39.2 °F 32.5 °F 23.0 °F 52% 30.26 in 10.0 mi North 10.4 mph - N/A   Clear
1:35 PM 41.0 °F 35.2 °F 24.8 °F 53% 30.25 in 10.0 mi NNE 9.2 mph - N/A   Clear
1:55 PM 41.0 °F 35.8 °F 24.8 °F 53% 30.24 in 10.0 mi NNE 8.1 mph - N/A   Clear
2:15 PM 41.0 °F 37.1 °F 26.6 °F 57% 30.24 in 10.0 mi NE 5.8 mph 16.1 mph N/A   Clear
2:35 PM 41.0 °F 34.3 °F 26.6 °F 57% 30.23 in 10.0 mi NNE 11.5 mph 16.1 mph N/A   Clear
3:15 PM 42.8 °F 37.0 °F 26.6 °F 53% 30.24 in 10.0 mi NNE 10.4 mph - N/A   Clear
3:35 PM 42.8 °F 37.5 °F 26.6 °F 53% 30.24 in 10.0 mi NE 9.2 mph 16.1 mph N/A   Clear
3:55 PM 42.8 °F 38.6 °F 26.6 °F 53% 30.24 in 10.0 mi NE 6.9 mph - N/A   Clear
4:15 PM 41.0 °F 37.1 °F 26.6 °F 57% 30.24 in 10.0 mi NNE 5.8 mph - N/A   Clear
4:35 PM 41.0 °F 35.8 °F 28.4 °F 61% 30.24 in 10.0 mi NE 8.1 mph - N/A   Clear
4:55 PM 41.0 °F 35.8 °F 26.6 °F 57% 30.24 in 10.0 mi NE 8.1 mph - N/A   Clear
5:15 PM 41.0 °F 37.1 °F 26.6 °F 57% 30.24 in 10.0 mi ENE 5.8 mph - N/A   Clear
5:35 PM 41.0 °F 37.1 °F 26.6 °F 57% 30.24 in 10.0 mi NE 5.8 mph - N/A   Clear
5:55 PM 39.2 °F 35.9 °F 26.6 °F 61% 30.25 in 10.0 mi NE 4.6 mph - N/A   Clear
6:15 PM 37.4 °F 34.9 °F 26.6 °F 65% 30.24 in 10.0 mi NNE 3.5 mph - N/A   Clear
6:35 PM 37.4 °F 34.9 °F 26.6 °F 65% 30.25 in 10.0 mi NNE 3.5 mph - N/A   Clear
6:55 PM 37.4 °F 34.9 °F 26.6 °F 65% 30.25 in 10.0 mi NNE 3.5 mph - N/A   Clear
7:15 PM 35.6 °F 32.8 °F 26.6 °F 70% 30.25 in 10.0 mi NNE 3.5 mph - N/A   Clear
7:35 PM 35.6 °F 32.8 °F 26.6 °F 70% 30.24 in 10.0 mi NNE 3.5 mph - N/A   Clear
8:15 PM 35.6 °F 31.7 °F 26.6 °F 70% 30.24 in 10.0 mi NNE 4.6 mph - N/A   Clear
8:35 PM 35.6 °F 32.8 °F 26.6 °F 70% 30.24 in 10.0 mi NNE 3.5 mph - N/A   Clear
8:55 PM 35.6 °F 31.7 °F 28.4 °F 75% 30.24 in 10.0 mi NNE 4.6 mph - N/A   Clear
9:15 PM 35.6 °F 31.7 °F 26.6 °F 70% 30.24 in 10.0 mi NNE 4.6 mph - N/A   Clear
9:35 PM 35.6 °F 32.8 °F 26.6 °F 70% 30.24 in 10.0 mi NNE 3.5 mph - N/A   Clear
9:55 PM 35.6 °F 32.8 °F 26.6 °F 70% 30.24 in 10.0 mi NNE 3.5 mph - N/A   Clear
10:15 PM 33.8 °F 30.8 °F 26.6 °F 75% 30.24 in 10.0 mi NNE 3.5 mph - N/A   Clear
10:35 PM 33.8 °F 30.8 °F 26.6 °F 75% 30.24 in 10.0 mi NNE 3.5 mph - N/A   Clear
10:55 PM 33.8 °F 30.8 °F 26.6 °F 75% 30.23 in 10.0 mi NE 3.5 mph - N/A   Clear
11:15 PM 32.0 °F 27.5 °F 26.6 °F 80% 30.23 in 10.0 mi NNE 4.6 mph - N/A   Clear
11:55 PM 32.0 °F 27.5 °F 24.8 °F 75% 30.23 in 10.0 mi NNE 4.6 mph - N/A   Clear